User: anonymous   Login
Location: eljas
(40.1958°N, 6.8661°W)
Time: 00:17:40
(UTC+02:00)
Language:

Okean O Rocket - Orbit

View from above orbital plane
View from above orbital plane
View from above satellite
View from above satellite

Ground track
Ground track

The orbit data is extracted from the following two-line orbital elements,

1 25861U 99039B   15239.91691575  .00000150  00000-0  27898-4 0  9999
2 25861 098.0085 199.7162 0016779 049.7401 014.2222 14.78178329868379
Epoch (UTC): 27 August 2015 22:00:21
Eccentricity: 0.0016779
inclination: 98.0085°
perigee height: 623 km
apogee height: 647 km
right ascension of ascending node: 199.7162°
argument of perigee: 49.7401°
revolutions per day: 14.78178329
mean anomaly at epoch: 14.2222°
orbit number at epoch: 86837

The dashed part of the orbit path shows where the satellite is in the earth's shadow,  

DLR